Location: Congrier
(47.8099°N, 1.1170°W)
Time: 19:09:15
(UTC+00:00)

PAYLOAD B - Pass Details

Date: 28 January 2023
Orbit: 849 x 870 km, 99.1° (Epoch: 26 March)

Event Time Altitude Azimuth Distance (km) Brightness Sun altitude
Rises 18:00:50 0° 146° (SE) 3,425 7.2 -10.6°
Reaches altitude 10° 18:03:16 10° 141° (SE) 2,489 6.4 -11.0°
Maximum altitude 18:08:34 50° 68° (ENE) 1,082 4.4 -11.9°
Drops below altitude 10° 18:13:53 10° 354° (N) 2,493 6.6 -12.7°
Sets 18:16:19 0° 349° (N) 3,431 7.4 -13.1°
